Weather History for Fargo, ND

Change the Weather History Date:

Sunday, December 15, 2013

  Actual Average Record
Temperature  
Mean Temperature -2 °F 14 °F  
Max Temperature 5 °F 22 °F 53 °F (1939)
Min Temperature -9 °F 6 °F -29 °F (1901)
Degree Days  
Heating Degree Days 67 51  
Month to date heating degree days 916 725  
Since 1 July heating degree days 2757 2687  
Cooling Degree Days 0 0  
Month to date cooling degree days 0 0  
Year to date cooling degree days 699 551  
Moisture  
Dew Point -11 °F    
Average Humidity 72    
Maximum Humidity 79    
Minimum Humidity 64    
Precipitation  
Precipitation 0.02 in 0.02 in 1.14 in (1893)
Month to date precipitation 0.90 0.39  
Year to date precipitation 31.79 22.17  
Snow  
Snow 0.30 in 0.30 in 11.40 in (1893)
Month to date snowfall 11.4 5.1  
Since 1 July snowfall 11.7 13.7  
Snow Depth 9.00 in    
Sea Level Pressure  
Sea Level Pressure 30.19 in    
Wind  
Wind Speed 7 mph (ENE)    
Max Wind Speed 20 mph    
Max Gust Speed 23 mph    
Visibility 8 miles    
Events Snow    
T = Trace of Precipitation, MM = Missing Value Source: NWS Daily Summary

Daily Weather History Graph

Daily Weather History Graph

Search for Another Location

Airport:

Trip Planner

Search our weather history database for the weather conditions in past years. The results will help you decide how hot, cold, wet, or windy it might be!

Date:

Astronomy

Dec. 15, 2013 Rise Set
Actual Time 8:06 AM CST 4:38 PM CST
Civil Twilight 7:30 AM CST 5:14 PM CST
Nautical Twilight 6:52 AM CST 5:53 PM CST
Astronomical Twilight 6:15 AM CST 6:30 PM CST
Moon 3:48 PM CST (12/15) 6:18 AM CST (12/15)
Length of Visible Light 9h 43m
Length of Day
8h 32m
Waxing Gibbous, 98% of the Moon is Illuminated
Dec 15
Waxing Gibbous
Dec 17
Full
Dec 25
Last Quarter
Jan 1
New
Jan 7
First Quarter

Hourly Weather History & Observations

Time (CST) Temp. Windchill Dew Point Humidity Pressure Visibility Wind Dir Wind Speed Gust Speed Precip Events Conditions
12:53 AM -6.0 °F -21.5 °F -13.0 °F 72% 30.30 in 10.0 mi North 8.1 mph - N/A   Overcast
1:53 AM -5.1 °F -20.4 °F -11.9 °F 72% 30.28 in 10.0 mi NNE 8.1 mph - N/A   Overcast
2:53 AM -5.1 °F -19.1 °F -13.0 °F 69% 30.29 in 10.0 mi North 6.9 mph - N/A   Overcast
3:53 AM -6.0 °F -23.6 °F -13.0 °F 72% 30.29 in 10.0 mi NNE 10.4 mph - N/A   Overcast
4:53 AM -6.0 °F -23.6 °F -13.0 °F 72% 30.27 in 10.0 mi North 10.4 mph - N/A   Overcast
5:53 AM -7.1 °F -22.8 °F -14.1 °F 72% 30.27 in 10.0 mi North 8.1 mph - N/A   Overcast
6:53 AM -6.0 °F -21.5 °F -13.0 °F 72% 30.29 in 10.0 mi North 8.1 mph - N/A   Overcast
7:53 AM -9.0 °F -23.8 °F -15.0 °F 75% 30.29 in 10.0 mi North 6.9 mph - N/A   Mostly Cloudy
8:53 AM -9.0 °F -23.8 °F -16.1 °F 71% 30.28 in 10.0 mi NNE 6.9 mph - N/A   Scattered Clouds
9:53 AM -9.0 °F -20.4 °F -16.1 °F 71% 30.30 in 10.0 mi North 4.6 mph - N/A   Clear
10:53 AM -7.1 °F -22.8 °F -15.0 °F 68% 30.28 in 10.0 mi NE 8.1 mph - N/A   Overcast
11:53 AM -5.1 °F -15.8 °F -14.1 °F 65% 30.26 in 10.0 mi NE 4.6 mph - N/A   Overcast
12:53 PM -5.1 °F -19.1 °F -14.1 °F 65% 30.22 in 10.0 mi ENE 6.9 mph - N/A   Overcast
1:53 PM -5.1 °F -15.8 °F -13.0 °F 69% 30.21 in 10.0 mi NE 4.6 mph - N/A   Overcast
2:53 PM -5.1 °F -17.6 °F -13.0 °F 69% 30.19 in 10.0 mi ENE 5.8 mph - N/A   Overcast
3:53 PM -5.1 °F -13.6 °F -14.1 °F 65% 30.20 in 8.0 mi ENE 3.5 mph - N/A   Overcast
4:53 PM -5.1 °F -13.6 °F -13.0 °F 69% 30.20 in 9.0 mi East 3.5 mph - N/A   Overcast
5:16 PM -4.0 °F -16.3 °F -13.0 °F 65% 30.09 in 1.8 mi East 5.8 mph - 0.00 in Snow Light Snow
5:33 PM -4.0 °F - -11.2 °F 71% 30.10 in 3.0 mi Calm Calm - 0.00 in Snow Light Snow
5:53 PM -4.0 °F - -11.9 °F 69% 30.19 in 10.0 mi Calm Calm - 0.00 in   Overcast
6:53 PM -2.9 °F -11.2 °F -9.9 °F 72% 30.17 in 10.0 mi ESE 3.5 mph - 0.00 in   Overcast
7:53 PM -0.0 °F -11.6 °F -8.0 °F 69% 30.13 in 10.0 mi SSE 5.8 mph - N/A   Overcast
8:53 PM 1.0 °F -14.0 °F -6.0 °F 72% 30.13 in 10.0 mi SE 9.2 mph - N/A   Overcast
9:53 PM 3.0 °F -14.8 °F -4.0 °F 73% 30.11 in 10.0 mi South 13.8 mph - N/A   Overcast
10:34 PM 3.2 °F -14.6 °F -2.2 °F 78% 30.01 in 1.8 mi South 13.8 mph - 0.00 in Snow Light Snow
10:42 PM 3.2 °F -14.6 °F -2.2 °F 78% 30.01 in 1.2 mi SSE 13.8 mph 19.6 mph 0.00 in Snow Light Snow
10:53 PM 3.9 °F -13.0 °F -2.0 °F 76% 30.09 in 1.5 mi SSE 12.7 mph - 0.01 in Snow Light Snow
11:47 PM 5.0 °F -14.2 °F -0.4 °F 78% 29.99 in 2.5 mi SSE 17.3 mph - 0.01 in Snow Light Snow
11:53 PM 5.0 °F -13.6 °F -0.9 °F 76% 30.06 in 4.0 mi SSE 16.1 mph 21.9 mph 0.01 in Snow Light Snow